Regional Weather Roundup
Issued by NWS Cleveland, OH

Home | Current Version | Previous Version | Text Only | Print | Product List | Glossary Off
Versions: 1 2 3 4 5 6 7 8 9 10 11 12 13 14 15 16 17 18 19 20 21 22 23 24 25 26 27 28 29 30 31 32 33 34 35 36 37 38 39 40 41 42 43 44 45 46 47 48 49 50

000
ASUS41 KCLE 021210
RWRCLE
OHIO REGIONAL WEATHER ROUNDUP
NATIONAL WEATHER SERVICE CLEVELAND, OH
800 AM EDT THU OCT 02 2014

NOTE: "FAIR" INDICATES FEW OR NO CLOUDS BELOW 12,000 FEET WITH NO
SIGNIFICANT WEATHER AND/OR OBSTRUCTIONS TO VISIBILITY.

OHZ001>008-015>018-024>027-034-035-043-044-021300-
   NORTHWEST OHIO

CITY           SKY/WX    TMP DP  RH WIND       PRES   REMARKS
DEFIANCE       MOCLDY    54  50  86 E5        30.02R FOG
FINDLAY        MOCLDY    54  50  86 SE9       30.03R FOG
TOLEDO EXPRESS PTCLDY    50  49  96 E3        30.03F FOG
TOLEDO EXEC    CLEAR     52  49  89 SE5       30.05S
LIMA           PTCLDY    57  51  80 SE8       30.03R
$$

OHZ009>014-019>023-028>033-038-089-021300-
   NORTHEAST OHIO

CITY           SKY/WX    TMP DP  RH WIND       PRES   REMARKS
CLE-HOPKINS    PTCLDY    52  51  97 S7        30.09R FOG
CLE-LAKEFRONT  CLEAR     55  52  89 S8        30.07R FOG
CUY CO. ARPT   PTCLDY    55  55 100 S8        30.08R FOG
LORAIN-ELYRIA  FOG       51  48  89 S5        30.09R VSB 1/4
ASHTABULA      FOG       52  52 100 S3        30.09R VSB<1/4
AKRON-CANTON   FOG       50  49  96 S5        30.08R VSB 1/8
WOOSTER        FOG       46  44  93 CALM      30.09R VSB<1/4
MANSFIELD      PTCLDY    50  49  96 S6        30.07R FOG
YOUNGSTOWN     FOG       49  49 100 SE7       30.09R VSB 1/8
$$

OHZ042-051>053-060>062-070>072-077>081-021300-
  SOUTHWEST OHIO

CITY           SKY/WX    TMP DP  RH WIND       PRES   REMARKS
CINC-COVINGTON PTCLDY    59  55  87 S7        30.02R
CINC-LUNKEN    CLEAR     53  52  96 CALM      30.04R
HAMILTON       CLEAR     51  50  96 CALM      30.04R
DAYTON         PTCLDY    56  51  84 SE7       30.05R
WRIGHT-PAT AFB CLEAR     53  50  89 NE3       30.04R
DAYTON GENERAL CLEAR     62  57  83 SE8       30.03R
WILMINGTON     CLEAR     54  51  90 E3        30.05R
$$

OHZ036-037-039>041-045>050-054>059-063>069-073>076-082>088-021300-
  CENTRAL AND SOUTHEAST OHIO

CITY           SKY/WX    TMP DP  RH WIND       PRES   REMARKS
COLUMBUS       PTCLDY    54  51  90 E3        30.06R
OSU AIRPORT    PTCLDY    51  49  92 E3        30.06R
BOLTON FIELD   PTCLDY    48  48 100 CALM      30.06S FOG
RICKENBACK AFB CLEAR     48  47  96 NE3       30.06R FOG
NEWARK         FOG       46  44  93 CALM      30.08R VSB<1/4
MARION         PTCLDY    51  48  89 S5        30.06R FOG
LANCASTER      CLEAR     47  45  93 CALM      30.07R
ZANESVILLE     FOG       46  44  93 CALM      30.09R VSB<1/4
NEW PHILLY     FOG       50  50 100 CALM      30.10R VSB<1/4
$$


USA.gov is the U.S. government's official web portal to all federal, state and local government web resources and services.